Location: Tehachapi Municipal Airport
(35.1300°N, 118.4400°W)
Time: 00:28:01
(UTC-08:00)

Daily predictions for brighter satellites

Satellite Brightness Start Highest point End
(mag) Time Altitude Azimuth Time Altitude Azimuth Time Altitude Azimuth
ATLAS 3B CENTAUR R/B 4.5 03:59:45 14° SSE 04:00:42 15° SE 04:04:37 10° ESE
ATLAS 2A CENTAUR R/B 4.5 04:24:15 26° SSE 04:24:15 26° SSE 04:25:51 10° ESE
NOSS 3-1 (C) 4.3 04:26:38 38° NNW 04:29:59 68° ENE 04:38:22 10° SE
SL-16 R/B 3.5 04:43:26 26° S 04:43:26 26° S 04:45:58 10° S
Cosmos 2346 Rocket 4.3 04:41:33 36° N 04:44:14 88° W 04:50:16 10° S
SeaSat 1 4.1 04:47:02 10° NNE 04:48:49 22° N 04:48:49 22° N
Cosmos 1538 Rocket 3.9 04:52:10 76° WSW 04:52:10 76° WSW 04:57:26 10° S
Cosmos 2221 2.9 04:47:56 10° S 04:52:11 60° E 04:56:27 10° NNE
Ariane Rocket 4.5 04:50:08 10° NNE 04:54:52 37° E 04:59:33 10° SSE
SL-8 R/B 4.2 04:55:14 47° N 04:55:50 50° NNE 05:00:30 10° ESE
SKYMED 2 4.3 04:52:29 10° SSE 04:56:40 50° ENE 04:59:46 17° N
DELTA 2 R/B (1) 3.6 04:59:32 59° NW 05:00:07 62° NNW 05:05:38 10° ENE
Cosmos 1703 4.5 05:00:42 12° N 05:04:07 41° E 05:07:51 10° SSE
Cosmos 2151 3.2 05:06:28 52° SSW 05:06:28 52° SSW 05:09:48 10° S
Cosmos 2034 Rocket 4.5 05:00:18 10° S 05:06:22 61° E 05:12:30 10° NNE
Cosmos 1680 Rocket 4.5 05:01:14 10° N 05:06:22 47° ENE 05:11:28 10° SE
Meteor 1-16 Rocket 4.3 05:09:51 47° NW 05:09:51 47° NW 05:14:23 10° N
Cosmos 1943 4.0 05:13:19 10° N 05:18:51 51° ENE 05:24:21 10° SE
Cosmos 1184 Rocket 4.1 05:16:53 12° N 05:19:41 41° E 05:22:50 10° SSE
Cosmos 773 Rocket 4.1 05:25:32 27° NW 05:28:10 52° WSW 05:33:17 10° S
Gbstr 26 Del rocket 3.6 05:26:08 30° WSW 05:28:42 65° NW 05:35:00 10° NE
Coronas F rocket 3.2 05:27:10 13° NNE 05:28:53 26° E 05:30:59 10° SE
Thor Agena Rocket 4.3 05:24:27 10° SSW 05:29:03 31° W 05:29:08 31° W
Meteor 1-11 4.4 05:24:04 10° NNW 05:29:40 51° W 05:35:14 10° SSW
Cosmos 389 Rocket 2.8 05:29:00 10° S 05:32:38 70° E 05:36:18 10° NNE
Cosmos 1340 Rocket 3.2 05:32:59 38° W 05:33:09 39° W 05:36:52 10° SSW
Cosmos 2263 Rocket 2.2 05:27:37 10° SSW 05:33:17 89° ESE 05:39:01 10° NNE
Cosmos 1464 Rocket 4.0 05:27:32 10° SSW 05:33:45 57° W 05:39:55 10° N
Cosmos 2344 3.6 05:33:37 10° SSW 05:41:20 85° WNW 05:49:41 10° NNE
NOSS 3-1 (A) 4.2 05:36:05 15° NW 05:42:44 60° WSW 05:51:00 10° SSE
Cosmos 2112 Rocket 4.0 05:37:26 10° NNW 05:42:48 89° ENE 05:48:09 10° SSE
COSMO-SKYMED 1 2.9 05:40:36 10° S 05:44:41 41° W 05:48:21 13° NNW
Cosmos 1603 4.1 05:41:33 19° NW 05:45:08 40° WSW 05:50:23 10° S
Cosmos 1908 3.1 05:42:39 10° S 05:46:28 83° W 05:50:19 10° N
GPS 2-05 Rocket1 2.9 05:47:57 30° W 05:49:16 57° SSW 05:52:28 10° ESE
Cosmos 2298 Rocket 4.2 05:44:01 10° S 05:49:17 76° ESE 05:54:35 10° NNE
Cosmos 1805 Rocket 3.7 05:46:06 10° NNW 05:50:20 49° W 05:54:32 10° SSW
ATLAS 2AS CENTAUR R/B 3.7 05:43:32 10° NNW 05:51:20 52° NE 05:58:35 10° SE
Cosmos 2058 3.9 05:50:48 23° WNW 05:51:41 24° W 05:55:04 10° SW
CZ-2C R/B 3.0 05:47:58 10° NNE 05:52:27 54° E 05:56:57 10° S
CSL-04 Rocket 3.5 05:47:42 10° N 05:52:58 70° WNW 05:58:11 10° SSW
ASTRO E2 4.3 05:53:51 10° SW 05:57:22 30° SSE 06:00:54 10° ESE
APEX 3.3 05:56:19 10° SW 06:00:04 41° WNW 06:03:08 10° N
Sich 1 3.1 06:00:01 10° NNW 06:04:14 54° W 06:08:24 10° S
Tiangong 2 2.6 06:03:10 16° NW 06:04:35 22° N 06:07:07 10° NE
PSLV R/B 4.4 06:05:05 15° NW 06:07:26 33° N 06:10:32 10° ENE
Cosmos 2228 Rocket 3.0 06:05:07 10° SSW 06:09:30 62° W 06:13:52 10° N
Cosmos 1356 Rocket 4.4 06:08:33 10° NW 06:12:04 27° W 06:15:37 10° SSW
Cosmos 1328 Rocket 3.5 06:08:17 10° SSW 06:12:33 60° W 06:16:53 10° N
Cosmos 1626 3.1 06:10:19 10° NNW 06:13:29 27° W 06:16:39 10° SSW
Cosmos 1633 Rocket 3.3 06:09:46 10° NNW 06:13:57 48° W 06:18:05 10° SSW
Cosmos 1151 Rocket 3.5 06:10:33 10° S 06:14:46 65° E 06:19:00 10° NNE
SMAP 3.1 06:13:46 10° NNE 06:18:27 89° WNW 06:23:06 10° SSW
Helios 1B rocket 3.4 06:17:14 10° SSE 06:21:13 51° ENE 06:25:12 10° N
Iridium 4 Rocket 3.9 06:17:45 10° N 06:22:11 59° E 06:26:59 10° SSE
Cosmos 1515 Rocket 3.6 06:20:45 10° SSW 06:25:05 59° W 06:29:29 10° N
Meteor 1-29 4.3 06:25:08 10° SSE 06:28:28 43° ENE 06:31:49 10° N
SJ-7 4.4 06:24:33 10° N 06:28:34 66° WNW 06:32:37 10° SSW
Cosmos 1634 Rocket 4.0 06:22:58 10° S 06:29:16 75° W 06:35:32 10° N
SPOT 3 Rocket 3.6 06:25:25 10° NNE 06:30:40 87° WNW 06:35:53 10° SSW
Ariane Rocket 4.1 06:29:40 10° NNW 06:33:32 22° WNW 06:37:25 10° WSW
